DW1084 Weather Reports


Display with metric or nautical units.
time (UTC)temp
F
wind
direction
speed
MPH
gust
MPH
rain 1hr
in
rain 24hr
in
rain mn
in
humidity
%
barometer
mb
20260504231531 71 132 3.0 0.0 0.00 0.00 0.00 39 1008.3
20260504230007 72 133 3.0 0.0 0.00 0.00 0.00 38 1008.3
20260504224549 72 126 3.0 0.0 0.00 0.00 0.00 39 1008.3
20260504223021 73 126 3.0 0.0 0.00 0.00 0.00 37 1008.2
20260504221600 73 136 3.0 0.0 0.00 0.00 0.00 36 1008.2
20260504221501 73 130 3.0 0.0 0.00 0.00 0.00 35 1008.2
20260504220035 73 128 4.0 0.0 0.00 0.00 0.00 38 1008.3
20260504214515 73 132 4.0 0.0 0.00 0.00 0.00 36 1008.4
20260504213055 73 140 4.0 0.0 0.00 0.00 0.00 34 1008.4
20260504211530 74 124 4.0 0.0 0.00 0.00 0.00 35 1008.5
20260504210009 74 123 4.0 0.0 0.00 0.00 0.00 36 1008.5
20260504204548 74 138 5.0 0.0 0.00 0.00 0.00 35 1008.4
20260504203025 74 119 3.0 0.0 0.00 0.00 0.00 33 1008.5
20260504201555 74 151 4.0 0.0 0.00 0.00 0.00 33 1008.7
20260504200035 75 192 3.0 0.0 0.00 0.00 0.00 37 1009.0
20260504194516 74 117 4.0 0.0 0.00 0.00 0.00 36 1009.3
20260504193051 74 111 3.0 0.0 0.00 0.00 0.00 36 1009.4
20260504191529 73 126 3.0 0.0 0.00 0.00 0.00 39 1009.7
20260504190004 73 141 3.0 0.0 0.00 0.00 0.00 35 1009.8
20260504184543 73 121 4.0 0.0 0.00 0.00 0.00 35 1009.9
20260504183020 73 157 2.0 0.0 0.00 0.00 0.00 37 1009.9
20260504181558 73 269 3.0 0.0 0.00 0.00 0.00 40 1010.4
20260504180033 71 161 4.0 0.0 0.00 0.00 0.00 39 1010.5
20260504174513 72 169 3.0 0.0 0.00 0.00 0.00 39 1010.6
20260504173056 72 136 2.0 0.0 0.00 0.00 0.00 40 1010.7
20260504171527 72 213 4.0 0.0 0.00 0.00 0.00 39 1011.0
20260504081600 40 308 0.0 0.0 0.00 0.00 0.00 78 1013.8
20260504050008 48 249 0.0 0.0 0.00 0.00 0.00 53 1013.7
20260504044544 48 214 1.0 0.0 0.00 0.00 0.00 54 1013.7
20260504043020 47 180 1.0 0.0 0.00 0.00 0.00 57 1013.6
20260504041554 44 258 0.0 0.0 0.00 0.00 0.00 64 1013.4
20260504040034 42 259 1.0 0.0 0.00 0.00 0.00 75 1013.5
20260504034508 41 264 0.0 0.0 0.00 0.00 0.00 75 1013.4
20260504033051 41 264 0.0 0.0 0.00 0.00 0.00 77 1013.1
20260504031522 42 264 0.0 0.0 0.00 0.00 0.00 75 1013.2
20260504030059 43 264 0.0 0.0 0.00 0.00 0.00 72 1013.1
20260504030001 43 264 0.0 0.0 0.00 0.00 0.00 72 1013.0
20260504024535 43 264 0.0 0.0 0.00 0.00 0.00 71 1013.0
20260504023015 44 264 0.0 0.0 0.00 0.00 0.00 69 1013.0
20260504021549 44 265 0.0 0.0 0.00 0.00 0.00 69 1012.9
20260504020030 45 265 0.0 0.0 0.00 0.00 0.00 65 1013.0
20260504014510 46 265 0.0 0.0 0.00 0.00 0.00 63 1013.0
20260504013046 48 265 0.0 0.0 0.00 0.00 0.00 59 1012.8
20260504011524 49 265 0.0 0.0 0.00 0.00 0.00 55 1012.7
20260504010114 51 265 0.0 0.0 0.00 0.00 0.00 52 1012.4
20260504004537 53 265 0.0 0.0 0.00 0.00 0.00 46 1012.4
20260504003013 54 265 0.0 0.0 0.00 0.00 0.00 41 1012.2
20260504001600 55 265 0.0 0.0 0.00 0.00 0.00 40 1012.0
20260504000040 56 266 1.0 0.0 0.00 0.00 0.00 37 1011.9
20260503234507 57 262 1.0 0.0 0.00 0.00 0.00 36 1011.7
20260503233053 59 209 2.0 0.0 0.00 0.00 0.00 35 1011.8